Location: Saint-Restitut
(44.3351°N, 4.7915°E)
Time: 03:24:51
(UTC+00:00)

Atlas Centaur 2 - Pass Details

Date: 03 February 2023
Orbit: 459 x 1295 km, 30.4° (Epoch: 27 March)

Event Time Altitude Azimuth Distance (km) Brightness Sun altitude
Rises 19:55:04 0° 245° (WSW) 4,188 6.5 -32.8°
Reaches altitude 10° 19:58:20 10° 235° (SW) 3,272 5.7 -33.4°
Enters shadow 20:04:30 30° 189° (S) 2,152 4.2 -34.5°
